EZY38MA EGGD-EGNS

Flight info

Callsign EZY38MA
Flight time 0h 43m
Altitude 22000
Route BCN P69 FEBWI/N0375F240 P69 DIZIM N864 WAL M146 LUSOD DCT IOM
Aircraft A320/M-SDE3FGHIRWY/LB1

Departure

Time 2026-04-24 16:06
Airport Bristol Airport (EGGD)

Arrival

Time 2026-04-24 16:50
Airport Isle of Man Airport (EGNS)
Time Latitude Longitude Altitude Speed Heading
2026-04-24 15:44 51.38531 -2.70766 613 ft 0 kts 86°
2026-04-24 15:55 51.38530 -2.70791 625 ft 2 kts 89°
2026-04-24 15:55 51.38531 -2.70818 617 ft 2 kts 136°
2026-04-24 15:56 51.38543 -2.70826 626 ft 1 kts 175°
2026-04-24 15:56 51.38545 -2.70827 626 ft 0 kts 175°
2026-04-24 15:58 51.38537 -2.70826 616 ft 3 kts 175°
2026-04-24 15:59 51.38494 -2.70821 613 ft 9 kts 178°
2026-04-24 15:59 51.38466 -2.70898 624 ft 8 kts 266°
2026-04-24 15:59 51.38463 -2.70980 615 ft 8 kts 266°
2026-04-24 15:59 51.38458 -2.71096 615 ft 12 kts 266°
2026-04-24 16:00 51.38452 -2.71255 621 ft 16 kts 266°
2026-04-24 16:00 51.38445 -2.71456 616 ft 19 kts 267°
2026-04-24 16:00 51.38436 -2.71669 626 ft 19 kts 266°
2026-04-24 16:00 51.38430 -2.71870 617 ft 17 kts 269°
2026-04-24 16:01 51.38429 -2.72059 616 ft 16 kts 268°
2026-04-24 16:01 51.38422 -2.72232 616 ft 15 kts 266°
2026-04-24 16:01 51.38416 -2.72396 616 ft 14 kts 266°
2026-04-24 16:01 51.38410 -2.72546 627 ft 13 kts 266°
2026-04-24 16:02 51.38405 -2.72680 621 ft 11 kts 266°
2026-04-24 16:02 51.38401 -2.72801 618 ft 11 kts 266°
2026-04-24 16:02 51.38395 -2.72938 629 ft 15 kts 266°
2026-04-24 16:02 51.38389 -2.73104 621 ft 12 kts 266°
2026-04-24 16:03 51.38386 -2.73162 621 ft 0 kts 266°
2026-04-24 16:03 51.38386 -2.73173 621 ft 3 kts 266°
2026-04-24 16:03 51.38381 -2.73244 634 ft 9 kts 258°
2026-04-24 16:04 51.38335 -2.73336 626 ft 11 kts 203°
2026-04-24 16:04 51.38270 -2.73341 629 ft 8 kts 169°
2026-04-24 16:04 51.38225 -2.73306 628 ft 6 kts 139°
2026-04-24 16:04 51.38214 -2.73250 630 ft 5 kts 86°
2026-04-24 16:05 51.38214 -2.73246 629 ft 0 kts 85°
2026-04-24 16:06 51.38259 -2.72128 632 ft 118 kts 86°
2026-04-24 16:06 51.38320 -2.70575 904 ft 150 kts 86°
2026-04-24 16:06 51.38428 -2.67145 2185 ft 169 kts 88°
2026-04-24 16:07 51.38484 -2.65159 2637 ft 191 kts 88°
2026-04-24 16:07 51.38552 -2.62897 3266 ft 213 kts 88°
2026-04-24 16:07 51.38732 -2.57631 4718 ft 253 kts 83°
2026-04-24 16:08 51.39474 -2.55065 5591 ft 268 kts 49°
2026-04-24 16:08 51.43068 -2.53683 7432 ft 291 kts 340°
2026-04-24 16:09 51.45811 -2.58321 9403 ft 296 kts 297°
2026-04-24 16:09 51.46733 -2.61291 10375 ft 299 kts 295°
2026-04-24 16:09 51.47692 -2.64404 10781 ft 323 kts 296°
2026-04-24 16:09 51.48794 -2.67690 11295 ft 339 kts 299°
2026-04-24 16:10 51.52639 -2.77553 13709 ft 356 kts 303°
2026-04-24 16:11 51.55433 -2.84252 15203 ft 362 kts 303°
2026-04-24 16:11 51.56838 -2.87632 16049 ft 363 kts 303°
2026-04-24 16:11 51.57990 -2.90424 16741 ft 364 kts 302°
2026-04-24 16:12 51.60777 -2.97230 18422 ft 364 kts 302°
2026-04-24 16:12 51.62168 -3.00652 19132 ft 365 kts 302°
2026-04-24 16:12 51.64940 -3.07492 20424 ft 369 kts 302°
2026-04-24 16:13 51.66352 -3.10986 21051 ft 371 kts 302°
2026-04-24 16:13 51.69222 -3.17991 22222 ft 377 kts 306°
2026-04-24 16:14 51.73325 -3.23277 23330 ft 389 kts 334°
2026-04-24 16:14 51.75937 -3.24564 23883 ft 396 kts 348°
2026-04-24 16:14 51.81479 -3.24156 24259 ft 397 kts
2026-04-24 16:15 51.83271 -3.23708 24280 ft 389 kts
2026-04-24 16:15 51.89441 -3.22145 24283 ft 383 kts
2026-04-24 16:16 51.94714 -3.20842 24271 ft 383 kts
2026-04-24 16:16 51.97344 -3.20194 24271 ft 382 kts
2026-04-24 16:17 52.05168 -3.18452 24256 ft 379 kts 360°
2026-04-24 16:17 52.10409 -3.18057 24258 ft 378 kts
2026-04-24 16:18 52.15665 -3.17650 24265 ft 378 kts
2026-04-24 16:18 52.20899 -3.17246 24272 ft 378 kts
2026-04-24 16:18 52.23525 -3.17042 24271 ft 378 kts
2026-04-24 16:19 52.28753 -3.16645 24268 ft 377 kts
2026-04-24 16:19 52.31386 -3.16443 24273 ft 377 kts
2026-04-24 16:20 52.36640 -3.16038 24275 ft 377 kts
2026-04-24 16:20 52.41882 -3.15632 24279 ft 376 kts
2026-04-24 16:20 52.44464 -3.15434 24275 ft 376 kts
2026-04-24 16:21 52.49700 -3.15023 24273 ft 376 kts
2026-04-24 16:21 52.52313 -3.14811 24287 ft 376 kts
2026-04-24 16:21 52.54930 -3.14603 24278 ft 375 kts
2026-04-24 16:22 52.57508 -3.14402 24286 ft 375 kts
2026-04-24 16:22 52.62721 -3.13993 24292 ft 374 kts
2026-04-24 16:22 52.65326 -3.13790 24284 ft 374 kts
2026-04-24 16:23 52.67933 -3.13586 24284 ft 373 kts
2026-04-24 16:23 52.70497 -3.13386 24285 ft 373 kts
2026-04-24 16:23 52.73084 -3.13570 24280 ft 371 kts 351°
2026-04-24 16:24 52.78197 -3.14793 24281 ft 371 kts 351°
2026-04-24 16:24 52.80747 -3.15399 24280 ft 371 kts 351°
2026-04-24 16:24 52.83306 -3.15998 24281 ft 370 kts 352°
2026-04-24 16:24 52.85857 -3.16594 24288 ft 370 kts 352°
2026-04-24 16:25 52.88412 -3.17183 24281 ft 370 kts 354°
2026-04-24 16:25 52.90947 -3.17284 24274 ft 370 kts
2026-04-24 16:25 52.93525 -3.17074 24277 ft 369 kts
2026-04-24 16:26 52.98663 -3.16667 24278 ft 369 kts
2026-04-24 16:26 53.01006 -3.16479 24275 ft 369 kts
2026-04-24 16:26 53.06086 -3.16084 24280 ft 369 kts
2026-04-24 16:27 53.08655 -3.15884 24272 ft 369 kts
2026-04-24 16:27 53.11228 -3.15678 24274 ft 369 kts
2026-04-24 16:27 53.13767 -3.15470 24269 ft 369 kts
2026-04-24 16:27 53.16336 -3.15262 24275 ft 369 kts
2026-04-24 16:28 53.18907 -3.15056 24268 ft 369 kts
2026-04-24 16:28 53.21472 -3.14855 24264 ft 369 kts
2026-04-24 16:28 53.26614 -3.14447 24265 ft 370 kts
2026-04-24 16:29 53.29186 -3.14247 24269 ft 370 kts
2026-04-24 16:29 53.31764 -3.14049 24265 ft 370 kts
2026-04-24 16:29 53.36810 -3.14340 23877 ft 360 kts 348°
2026-04-24 16:30 53.41366 -3.17633 23331 ft 361 kts 326°
2026-04-24 16:30 53.43279 -3.20371 23050 ft 362 kts 316°
2026-04-24 16:30 53.45035 -3.23381 22797 ft 361 kts 316°
2026-04-24 16:31 53.46792 -3.26384 22525 ft 360 kts 316°
2026-04-24 16:31 53.48549 -3.29385 22249 ft 359 kts 316°
2026-04-24 16:31 53.50301 -3.32379 21935 ft 356 kts 315°
2026-04-24 16:31 53.52012 -3.35308 21485 ft 353 kts 315°
2026-04-24 16:32 53.53153 -3.37267 21182 ft 352 kts 315°
2026-04-24 16:32 53.55442 -3.41199 20567 ft 351 kts 315°
2026-04-24 16:32 53.57144 -3.44125 20124 ft 349 kts 314°
2026-04-24 16:32 53.58685 -3.47301 19686 ft 348 kts 305°
2026-04-24 16:33 53.60064 -3.50584 19252 ft 347 kts 305°
2026-04-24 16:33 53.61461 -3.53901 18807 ft 346 kts 305°
2026-04-24 16:33 53.62858 -3.57214 18359 ft 346 kts 305°
2026-04-24 16:33 53.64247 -3.60517 17917 ft 344 kts 304°
2026-04-24 16:34 53.65628 -3.63804 17495 ft 342 kts 304°
2026-04-24 16:34 53.66981 -3.67033 17076 ft 339 kts 304°
2026-04-24 16:34 53.68340 -3.70281 16661 ft 338 kts 304°
2026-04-24 16:34 53.69693 -3.73523 16244 ft 336 kts 304°
2026-04-24 16:35 53.71033 -3.76743 15845 ft 335 kts 304°
2026-04-24 16:35 53.72377 -3.79975 15433 ft 334 kts 304°
2026-04-24 16:35 53.73709 -3.83182 15027 ft 333 kts 304°
2026-04-24 16:35 53.75018 -3.86330 14627 ft 332 kts 304°
2026-04-24 16:36 53.76346 -3.89520 14216 ft 331 kts 304°
2026-04-24 16:36 53.77666 -3.92697 13790 ft 329 kts 303°
2026-04-24 16:36 53.78976 -3.95860 13369 ft 327 kts 303°
2026-04-24 16:36 53.80280 -3.99012 12964 ft 325 kts 303°
2026-04-24 16:37 53.81575 -4.02149 12559 ft 323 kts 303°
2026-04-24 16:37 53.82838 -4.05212 12396 ft 312 kts 303°
2026-04-24 16:37 53.83527 -4.06885 12293 ft 308 kts 303°
2026-04-24 16:37 53.85129 -4.10789 11903 ft 300 kts 303°
2026-04-24 16:38 53.86311 -4.13674 11483 ft 296 kts 303°
2026-04-24 16:38 53.87484 -4.16535 10969 ft 294 kts 303°
2026-04-24 16:38 53.88634 -4.19346 10471 ft 292 kts 303°
2026-04-24 16:38 53.89791 -4.22175 9943 ft 291 kts 303°
2026-04-24 16:39 53.90939 -4.24984 9390 ft 289 kts 303°
2026-04-24 16:39 53.92088 -4.27798 8961 ft 289 kts 303°
2026-04-24 16:39 53.93229 -4.30595 8547 ft 287 kts 303°
2026-04-24 16:39 53.94323 -4.33391 8161 ft 285 kts 296°
2026-04-24 16:40 53.94848 -4.36564 7769 ft 279 kts 273°
2026-04-24 16:40 53.94954 -4.39820 7518 ft 271 kts 270°
2026-04-24 16:40 53.95016 -4.42943 7400 ft 259 kts 269°
2026-04-24 16:40 53.95075 -4.45947 7284 ft 246 kts 269°
2026-04-24 16:41 53.95135 -4.48758 7134 ft 233 kts 269°
2026-04-24 16:41 53.95195 -4.51467 6916 ft 228 kts 269°
2026-04-24 16:41 53.95256 -4.54122 6638 ft 227 kts 269°
2026-04-24 16:41 53.95317 -4.56792 6333 ft 226 kts 269°
2026-04-24 16:42 53.95379 -4.59456 6032 ft 225 kts 269°
2026-04-24 16:42 53.95442 -4.62107 5746 ft 223 kts 269°
2026-04-24 16:42 53.95505 -4.64740 5451 ft 222 kts 269°
2026-04-24 16:42 53.95569 -4.67322 5164 ft 221 kts 269°
2026-04-24 16:43 53.95635 -4.69934 4868 ft 220 kts 269°
2026-04-24 16:43 53.95698 -4.72521 4575 ft 219 kts 269°
2026-04-24 16:43 53.95740 -4.74228 4379 ft 218 kts 269°
2026-04-24 16:43 53.95802 -4.76804 4087 ft 218 kts 269°
2026-04-24 16:44 53.95878 -4.80212 3699 ft 217 kts 269°
2026-04-24 16:44 53.95933 -4.82767 3405 ft 216 kts 269°
2026-04-24 16:44 53.95984 -4.84470 3286 ft 215 kts 275°
2026-04-24 16:44 53.96588 -4.86796 3156 ft 220 kts 312°
2026-04-24 16:45 53.97857 -4.88129 3032 ft 220 kts 348°
2026-04-24 16:45 53.99378 -4.88176 2900 ft 219 kts 13°
2026-04-24 16:45 54.00850 -4.87535 2788 ft 219 kts 19°
2026-04-24 16:45 54.02303 -4.86796 2700 ft 215 kts 19°
2026-04-24 16:46 54.03711 -4.86069 2580 ft 208 kts 19°
2026-04-24 16:46 54.05001 -4.85163 2485 ft 198 kts 36°
2026-04-24 16:46 54.05981 -4.83676 2435 ft 180 kts 55°
2026-04-24 16:46 54.06574 -4.81915 2363 ft 165 kts 73°
2026-04-24 16:47 54.06822 -4.80068 2192 ft 157 kts 86°
2026-04-24 16:47 54.06975 -4.78242 1986 ft 154 kts 86°
2026-04-24 16:47 54.07115 -4.76475 1808 ft 147 kts 86°
2026-04-24 16:47 54.07248 -4.74789 1523 ft 141 kts 86°
2026-04-24 16:48 54.07354 -4.73151 1281 ft 136 kts 90°
2026-04-24 16:48 54.07388 -4.71573 988 ft 131 kts 92°
2026-04-24 16:48 54.07428 -4.70064 768 ft 127 kts 85°
2026-04-24 16:48 54.07558 -4.68570 620 ft 127 kts 80°
2026-04-24 16:49 54.07729 -4.67111 463 ft 125 kts 77°
2026-04-24 16:49 54.07910 -4.65673 304 ft 124 kts 77°
2026-04-24 16:49 54.08090 -4.64250 165 ft 124 kts 77°
2026-04-24 16:49 54.08272 -4.62829 46 ft 117 kts 78°
2026-04-24 16:50 54.08362 -4.62114 41 ft 66 kts 78°
2026-04-24 16:50 54.08426 -4.61598 42 ft 19 kts 78°
2026-04-24 16:50 54.08460 -4.61432 40 ft 13 kts 35°
2026-04-24 16:50 54.08530 -4.61491 43 ft 12 kts 291°
2026-04-24 16:51 54.08541 -4.61628 42 ft 12 kts 276°
2026-04-24 16:51 54.08550 -4.61762 42 ft 11 kts 276°
2026-04-24 16:51 54.08551 -4.61880 44 ft 10 kts 265°
2026-04-24 16:51 54.08537 -4.62007 46 ft 12 kts 259°
2026-04-24 16:52 54.08516 -4.62175 48 ft 15 kts 258°
2026-04-24 16:52 54.08497 -4.62326 51 ft 12 kts 258°
2026-04-24 16:52 54.08478 -4.62478 47 ft 17 kts 258°
2026-04-24 16:52 54.08448 -4.62714 42 ft 23 kts 258°
2026-04-24 16:53 54.08422 -4.62922 43 ft 13 kts 258°
2026-04-24 16:53 54.08468 -4.62999 43 ft 10 kts 349°
2026-04-24 16:53 54.08528 -4.63020 45 ft 6 kts 348°
2026-04-24 16:53 54.08568 -4.63036 46 ft 7 kts 339°
2026-04-24 16:54 54.08619 -4.63116 46 ft 13 kts 314°
2026-04-24 16:54 54.08660 -4.63204 46 ft 6 kts 273°
2026-04-24 16:54 54.08634 -4.63259 46 ft 5 kts 224°
2026-04-24 16:54 54.08629 -4.63267 46 ft 0 kts 224°